Weather in Lyaskelya

Russia / Republic of Karelia     61°45′41″N   31°00′36″E
temp.,
°C
wind,
m/s
gust,
m/s
humid.,
%
clouds,
%
prec.,
mm/h
press.,
hPa
HPBL,
m
5 december, sun
sun500:00−16ne310856 0.0 1017451
03:00−16ne310865 0.0 1019389
06:00−17ne410865 0.0 1020373
09:00−17ne39895 0.0 1022331
12:00−17ne39875 0.0 1023382
15:00−17ne37887 0.0 1024248
18:00−17ne39896 0.0 1026249
21:00−17ne278978 0.0 1027160
6 december, mon
mon600:00−15nne269641 0.0 1027126
03:00−15nne259791 0.0 102791
06:00−12ne399592 0.0 1026272
09:00−12ene279694 0.1 1026276
12:00−11e399497 0.1 1027407
15:00−13e389215 0.1 1026324
18:00−15e39895 0.0 1025294
21:00−16e38893 0.0 1024249
7 december, tue
tue700:00−16e379176 0.0 1023205
03:00−14ene389384 0.1 1022294
06:00−13ene3894100 0.1 1020329
09:00−12ne3894100 0.5 1019391
12:00−11ne3893100 0.3 1018357
15:00−10ne3793100 0.6 1016361
18:00−10ne3794100 0.4 1015329
21:00−9nne3794100 0.9 1015310
8 december, wed
wed800:00−10nne3795100 0.3 1015248
03:00−10n3695100 0.6 1014225
06:00−10n269597 0.2 1015179
09:00−13nnw259740 0.2 1016106
12:00−13nnw259618 0.0 1017120
15:00−14wnw239753 0.0 101861
18:00−16nw239954 0.0 101949
21:00−16nw249959 0.0 102076
9 december, thu
thu900:00−17wnw129960 0.0 102132
03:00−16nw1498100 0.0 102267
06:00−17nw129869 0.0 102343
09:00−17nw119952 0.0 102326
12:00−15nnw139612 0.0 102477
15:00−15nw119851 0.0 102420
18:00−17nnw229956 0.0 102435
21:00−17nnw129938 0.0 102540